Home   Weather   Minden   Past weeks

Flag for Germany Past Weather in Minden, North Rhine-Westphalia, Germany — Yesterday and Last 2 Weeks

Now
50 °F

Scattered clouds.


Feels Like: 48 °F
Forecast: 30 / 52 °F
Wind: 5 mph from Northwest

Location: Bueckeburg

Current Time: Apr 26, 2017 at 4:20:19 pm

Latest Report: Apr 26, 2017 at 3:20 pm


Visibility: N/A

Pressure: 29.86 "Hg

Humidity: 50%

Dew Point: 32 °F

Location of MindenLocation

Past Weather in Minden — Graph

°F

Minden Temperature Yesterday

Maximum temperature yesterday: 50 °F (at 1:20 pm)
Minimum temperature yesterday: 36 °F (at 10:20 pm)
Average temperature yesterday: 43 °F

High & Low Weather Summary for the Past Weeks

 TemperatureHumidityPressure
High57 °F (Apr 21, 1:20 pm)94% (Apr 12, 7:00 pm)30.63 "Hg (Apr 12, 7:00 pm)
Low27 °F (Apr 19, 6:20 am)35% (Apr 20, 5:20 pm)29.62 "Hg (Apr 25, 4:41 am)
Average44 °F73%30.10 "Hg
* Reported Apr 11 2:20 pm — Apr 26 2:20 pm, Minden, Weather by CustomWeather, © 2017

Note: Actual official high and low records may vary slightly from our data, if they occured in-between our weather recording intervals... More about our weather records

Advertising

Minden Weather History for the Previous 24 Hours

Scroll right to see more
 ConditionsComfort  
Time TempWeatherWind HumidityBarometerVisibility
2:20 pm
Wed, Apr 26
46 °FScattered clouds.3 mph57%29.89 "HgN/A
1:53 pm46 °FSprinkles. Partly sunny.9 mph57%29.89 "HgN/A
1:20 pm48 °FScattered showers. Partly sunny.8 mph54%29.86 "HgN/A
12:20 pm48 °FScattered clouds.5 mph50%29.86 "HgN/A
11:20 am46 °FScattered clouds.8 mph57%29.86 "HgN/A
10:20 am45 °FScattered clouds.7 mph71%29.86 "HgN/A
9:20 am43 °FPassing clouds.5 mph76%29.86 "HgN/A
8:20 am39 °FScattered clouds.6 mph81%29.86 "HgN/A
7:20 am34 °FScattered clouds.6 mph93%29.83 "HgN/A
6:20 am32 °FPassing clouds.3 mph93%29.83 "HgN/A
5:20 am32 °FPassing clouds.5 mph87%29.83 "HgN/A
4:20 am32 °FPassing clouds.5 mph87%29.83 "HgN/A
3:20 am32 °FPassing clouds.6 mph93%29.80 "HgN/A
2:20 am36 °FPassing clouds.7 mph81%29.80 "HgN/A
1:20 am36 °FPassing clouds.6 mph81%29.80 "HgN/A
12:20 am36 °FPassing clouds.7 mph81%29.80 "HgN/A
11:20 pm
Tue, Apr 25
39 °FPassing clouds.8 mph75%29.80 "HgN/A
10:20 pm36 °FPassing clouds.6 mph87%29.80 "HgN/A
9:20 pm37 °FPassing clouds.3 mph93%29.80 "HgN/A
8:20 pm43 °FPassing clouds.5 mph71%29.80 "HgN/A
7:20 pm45 °FScattered clouds.6 mph66%29.77 "HgN/A
6:20 pm45 °FScattered showers. Scattered clouds.7 mph66%29.77 "HgN/A
5:20 pm45 °FScattered clouds.13 mph71%29.77 "HgN/A
4:20 pm43 °FPassing clouds.9 mph81%29.74 "HgN/A
Weather by CustomWeather, © 2017

See weather overviewHow to use our weather pages